,,Stat6,,Stat2,,Stat8,,Stat9,,Stat10,,Wind1,,Wind1,
time,status,PA1M_AVG,status,PR1M_SUM,status,RH1M_AVG,status,SR1M_AVG,status,TA1M_AVG,status,W1dAve1m,status,W1sAve1m,
2004-01-06, 00:00:00,VALID,919.624,VALID,0,VALID,88.5749,VALID,0,VALID,20.8609,VALID,64,VALID,1.72604,
2004-01-06, 00:01:00,VALID,919.601,VALID,0,VALID,88.7745,VALID,0,VALID,20.8641,VALID,93,VALID,1.49582,
2004-01-06, 00:02:00,VALID,919.564,VALID,0,VALID,88.6753,VALID,-0.0679233,VALID,20.8776,VALID,120,VALID,1.37155,
2004-01-06, 00:03:00,VALID,919.556,VALID,0,VALID,87.9671,VALID,-0.0339617,VALID,20.9091,VALID,54,VALID,0.829861,
2004-01-06, 00:04:00,VALID,919.536,VALID,0,VALID,88.1998,VALID,0,VALID,20.9252,VALID,98,VALID,0.614139,
2004-01-06, 00:05:00,VALID,919.537,VALID,0,VALID,88.3167,VALID,0,VALID,20.9252,VALID,91,VALID,1.09687,
2004-01-06, 00:06:00,VALID,919.542,VALID,0,VALID,88.7593,VALID,-0.0169808,VALID,20.8636,VALID,83,VALID,1.30171,
2004-01-06, 00:07:00,VALID,919.524,VALID,0,VALID,88.5151,VALID,-0.0339617,VALID,20.8447,VALID,90,VALID,1.82148,
2004-01-06, 00:08:00,VALID,919.514,VALID,0,VALID,87.8806,VALID,-0.0169808,VALID,20.925,VALID,113,VALID,1.7082,
2004-01-06, 00:09:00,VALID,919.496,VALID,0,VALID,87.2969,VALID,0,VALID,21.0512,VALID,117,VALID,2.00709,
2004-01-06, 00:10:01,VALID,919.459,VALID,0,VALID,87.227,VALID,-0.0339617,VALID,21.1064,VALID,103,VALID,1.48933,
2004-01-06, 00:11:01,VALID,919.456,VALID,0,VALID,87.405,VALID,-0.0509425,VALID,21.0639,VALID,108,VALID,1.89634,
2004-01-06, 00:12:00,VALID,919.45,VALID,0,VALID,87.2906,VALID,-0.0169808,VALID,21.0833,VALID,119,VALID,2.18211,
2004-01-06, 00:13:00,VALID,919.442,VALID,0,VALID,87.3084,VALID,-0.0509425,VALID,21.0512,VALID,119,VALID,1.88579,
2004-01-06, 00:14:00,VALID,919.422,VALID,0,VALID,87.2969,VALID,-0.0339617,VALID,21.0577,VALID,100,VALID,1.7056,
2004-01-06, 00:15:00,VALID,919.416,VALID,0,VALID,87.2168,VALID,-0.0169808,VALID,21.0736,VALID,114,VALID,2.22154,
2004-01-06, 00:16:00,VALID,919.408,VALID,0,VALID,87.1609,VALID,0,VALID,21.1029,VALID,112,VALID,2.26181,
2004-01-06, 00:17:01,VALID,919.381,VALID,0,VALID,87.1164,VALID,-0.0169808,VALID,21.1026,VALID,114,VALID,2.40716,
2004-01-06, 00:18:00,VALID,919.385,VALID,0,VALID,87.391,VALID,-0.0169808,VALID,21.0865,VALID,95,VALID,1.57613,
2004-01-06, 00:19:00,VALID,919.39,VALID,0,VALID,87.6466,VALID,-0.0339617,VALID,21.0448,VALID,96,VALID,1.7681,
2004-01-06, 00:20:00,VALID,919.409,VALID,0,VALID,87.6059,VALID,-0.0339617,VALID,21.0356,VALID,88,VALID,2.16741,
2004-01-06, 00:21:00,VALID,919.416,VALID,0,VALID,87.3834,VALID,-0.0169808,VALID,21.091,VALID,99,VALID,1.76847,
2004-01-06, 00:22:00,VALID,919.408,VALID,0,VALID,87.55,VALID,-0.0509425,VALID,21.087,VALID,123,VALID,1.89753,
2004-01-06, 00:23:01,VALID,919.39,VALID,0,VALID,87.906,VALID,-0.0169808,VALID,21.0251,VALID,130,VALID,1.58103,
2004-01-06, 00:24:01,VALID,919.371,VALID,0,VALID,88.215,VALID,-0.0339617,VALID,20.9807,VALID,96,VALID,1.31971,
2004-01-06, 00:25:00,VALID,919.391,VALID,0,VALID,88.5177,VALID,-0.0339617,VALID,20.9156,VALID,71,VALID,1.34673,
2004-01-06, 00:26:00,VALID,919.397,VALID,0,VALID,88.6436,VALID,-0.0339617,VALID,20.8862,VALID,119,VALID,1.2397,
2004-01-06, 00:27:01,VALID,919.383,VALID,0,VALID,88.7707,VALID,-0.0169808,VALID,20.8701,VALID,107,VALID,1.89977,
2004-01-06, 00:28:00,VALID,919.381,VALID,0,VALID,88.5444,VALID,-0.0169808,VALID,20.886,VALID,97,VALID,1.55678,
2004-01-06, 00:29:00,VALID,919.339,VALID,0,VALID,88.4312,VALID,-0.0169808,VALID,20.9444,VALID,135,VALID,1.81818,
2004-01-06, 00:30:01,VALID,919.329,VALID,0,VALID,88.6499,VALID,-0.0509425,VALID,20.9217,VALID,120,VALID,1.47986,
2004-01-06, 00:31:00,VALID,919.312,VALID,0,VALID,88.8152,VALID,0,VALID,20.8929,VALID,133,VALID,2.05087,
2004-01-06, 00:32:00,VALID,919.277,VALID,0,VALID,88.9195,VALID,-0.0679233,VALID,20.89,VALID,125,VALID,1.95064,
2004-01-06, 00:33:00,VALID,919.261,VALID,0,VALID,89.2183,VALID,-0.0169808,VALID,20.8375,VALID,101,VALID,1.27271,
2004-01-06, 00:34:01,VALID,919.248,VALID,0,VALID,89.5973,VALID,-0.0509425,VALID,20.7737,VALID,123,VALID,2.0419,
2004-01-06, 00:35:00,VALID,919.23,VALID,0,VALID,89.3506,VALID,-0.0169808,VALID,20.7769,VALID,123,VALID,2.08628,
2004-01-06, 00:36:00,VALID,919.237,VALID,0,VALID,89.3048,VALID,-0.0339617,VALID,20.8055,VALID,119,VALID,2.14174,
2004-01-06, 00:37:00,VALID,919.207,VALID,0,VALID,89.4625,VALID,-0.0169808,VALID,20.7923,VALID,128,VALID,2.08027,
2004-01-06, 00:38:00,VALID,919.174,VALID,0,VALID,89.6062,VALID,0,VALID,20.7794,VALID,124,VALID,2.26162,
2004-01-06, 00:39:00,VALID,919.156,VALID,0,VALID,89.671,VALID,-0.0169808,VALID,20.7861,VALID,116,VALID,2.47199,
2004-01-06, 00:40:01,VALID,919.137,VALID,0,VALID,89.863,VALID,0,VALID,20.7697,VALID,113,VALID,2.34468,
2004-01-06, 00:41:01,VALID,919.125,VALID,0,VALID,90.0309,VALID,-0.0169808,VALID,20.7376,VALID,123,VALID,1.77716,
2004-01-06, 00:42:00,VALID,919.12,VALID,0,VALID,90.2776,VALID,0,VALID,20.6916,VALID,95,VALID,1.85377,
2004-01-06, 00:43:00,VALID,919.123,VALID,0,VALID,90.3882,VALID,-0.0169808,VALID,20.6857,VALID,118,VALID,2.67667,
2004-01-06, 00:44:00,VALID,919.093,VALID,0,VALID,90.1873,VALID,-0.0169808,VALID,20.7242,VALID,108,VALID,1.91264,
2004-01-06, 00:45:00,VALID,919.076,VALID,0,VALID,89.8948,VALID,-0.0169808,VALID,20.7506,VALID,108,VALID,2.07151,
2004-01-06, 00:46:00,VALID,919.059,VALID,0,VALID,89.5044,VALID,-0.0169808,VALID,20.8184,VALID,110,VALID,2.05941,
2004-01-06, 00:47:00,VALID,919.066,VALID,0,VALID,89.3455,VALID,0,VALID,20.8531,VALID,88,VALID,1.76209,
2004-01-06, 00:48:00,VALID,919.054,VALID,0,VALID,89.2361,VALID,-0.0339617,VALID,20.8862,VALID,110,VALID,1.48921,
2004-01-06, 00:49:00,VALID,919.053,VALID,0,VALID,88.9754,VALID,0,VALID,20.9056,VALID,129,VALID,2.67748,
2004-01-06, 00:50:01,VALID,919.072,VALID,0,VALID,89.0823,VALID,-0.0169808,VALID,20.9314,VALID,76,VALID,1.05043,
2004-01-06, 00:51:01,VALID,919.081,VALID,0,VALID,89.4866,VALID,-0.0339617,VALID,20.8927,VALID,117,VALID,1.32927,
2004-01-06, 00:52:00,VALID,919.083,VALID,0,VALID,89.8389,VALID,-0.0339617,VALID,20.8278,VALID,135,VALID,1.9088,
2004-01-06, 00:53:01,VALID,919.071,VALID,0,VALID,89.9635,VALID,0,VALID,20.8152,VALID,126,VALID,1.35435,
2004-01-06, 00:54:00,VALID,919.062,VALID,0,VALID,90.1504,VALID,0,VALID,20.7885,VALID,128,VALID,1.2255,
2004-01-06, 00:55:01,VALID,919.051,VALID,0,VALID,90.3348,VALID,-0.0169808,VALID,20.757,VALID,148,VALID,1.25852,
2004-01-06, 00:56:00,VALID,919.047,VALID,0,VALID,90.4988,VALID,-0.0339617,VALID,20.7341,VALID,145,VALID,1.32358,
2004-01-06, 00:57:00,VALID,919.042,VALID,0,VALID,90.6781,VALID,0.0169808,VALID,20.6887,VALID,117,VALID,1.13899,
2004-01-06, 00:58:00,VALID,919.042,VALID,0,VALID,90.9375,VALID,0,VALID,20.6491,VALID,137,VALID,1.40811,
2004-01-06, 00:59:00,VALID,919.018,VALID,0,VALID,91.085,VALID,0.0679233,VALID,20.6144,VALID,142,VALID,1.24146,
2004-01-06, 01:00:00,VALID,919.008,VALID,0,VALID,91.1461,VALID,0,VALID,20.5947,VALID,145,VALID,1.45046,
2004-01-06, 01:01:00,VALID,918.982,VALID,0,VALID,91.1346,VALID,0.0169808,VALID,20.595,VALID,124,VALID,0.920541,
2004-01-06, 01:02:01,VALID,918.969,VALID,0,VALID,90.9668,VALID,-0.0169808,VALID,20.5851,VALID,125,VALID,1.85084,
2004-01-06, 01:03:00,VALID,918.952,VALID,0,VALID,90.7659,VALID,0.0169808,VALID,20.6303,VALID,106,VALID,1.70964,
2004-01-06, 01:04:01,VALID,918.957,VALID,0,VALID,90.8396,VALID,0.0339617,VALID,20.6365,VALID,117,VALID,1.8776,
2004-01-06, 01:05:01,VALID,918.923,VALID,0,VALID,90.6222,VALID,0.0169808,VALID,20.6499,VALID,131,VALID,2.48266,
2004-01-06, 01:06:00,VALID,918.894,VALID,0,VALID,90.1148,VALID,0,VALID,20.7403,VALID,155,VALID,2.21566,
2004-01-06, 01:07:00,VALID,918.881,VALID,0,VALID,89.8223,VALID,0.0169808,VALID,20.8146,VALID,106,VALID,1.69265,
2004-01-06, 01:08:00,VALID,918.864,VALID,0,VALID,89.7168,VALID,0.0339617,VALID,20.844,VALID,131,VALID,2.44417,
2004-01-06, 01:09:00,VALID,918.823,VALID,0,VALID,89.437,VALID,0.0339617,VALID,20.8857,VALID,124,VALID,1.86156,
2004-01-06, 01:10:00,VALID,918.799,VALID,0,VALID,89.423,VALID,0.0339617,VALID,20.9078,VALID,122,VALID,1.67047,
2004-01-06, 01:11:00,VALID,918.78,VALID,0,VALID,89.2844,VALID,0.0169808,VALID,20.908,VALID,127,VALID,2.1689,
2004-01-06, 01:12:00,VALID,918.776,VALID,0,VALID,89.0378,VALID,0.0339617,VALID,20.9309,VALID,134,VALID,2.67597,
2004-01-06, 01:13:00,VALID,918.774,VALID,0,VALID,88.9856,VALID,0.0169808,VALID,20.9726,VALID,128,VALID,1.95033,
2004-01-06, 01:14:01,VALID,918.769,VALID,0,VALID,88.9564,VALID,0,VALID,20.9761,VALID,136,VALID,2.29415,
2004-01-06, 01:15:00,VALID,918.754,VALID,0,VALID,88.9742,VALID,0.0169808,VALID,20.9885,VALID,131,VALID,1.8738,
2004-01-06, 01:16:01,VALID,918.759,VALID,0,VALID,89.0123,VALID,0,VALID,20.9982,VALID,130,VALID,2.25672,
2004-01-06, 01:17:01,VALID,918.762,VALID,0,VALID,89.1509,VALID,0.0169808,VALID,20.9826,VALID,121,VALID,2.07347,
2004-01-06, 01:18:00,VALID,918.774,VALID,0,VALID,89.2412,VALID,0.0169808,VALID,20.9659,VALID,131,VALID,2.68025,
2004-01-06, 01:19:00,VALID,918.774,VALID,0,VALID,89.3239,VALID,0.0169808,VALID,20.9498,VALID,139,VALID,2.47765,
2004-01-06, 01:20:00,VALID,918.779,VALID,0,VALID,89.4676,VALID,0.0169808,VALID,20.9637,VALID,147,VALID,1.30451,
2004-01-06, 01:21:00,VALID,918.764,VALID,0,VALID,89.5845,VALID,0.0169808,VALID,20.9339,VALID,142,VALID,1.47098,
2004-01-06, 01:22:00,VALID,918.75,VALID,0,VALID,89.521,VALID,0,VALID,20.9336,VALID,159,VALID,1.80806,
2004-01-06, 01:23:00,VALID,918.763,VALID,0,VALID,89.6469,VALID,0,VALID,20.9503,VALID,160,VALID,1.1769,
2004-01-06, 01:24:00,VALID,918.756,VALID,0,VALID,89.9215,VALID,0,VALID,20.9177,VALID,139,VALID,1.48114,
2004-01-06, 01:25:00,VALID,918.747,VALID,0,VALID,90.2687,VALID,0,VALID,20.8722,VALID,154,VALID,0.989769,
2004-01-06, 01:26:00,VALID,918.716,VALID,0,VALID,90.4836,VALID,0,VALID,20.834,VALID,151,VALID,1.32656,
2004-01-06, 01:27:00,VALID,918.701,VALID,0,VALID,90.6959,VALID,0.0339617,VALID,20.8014,VALID,144,VALID,1.38548,
2004-01-06, 01:28:00,VALID,918.706,VALID,0,VALID,90.8765,VALID,0.0339617,VALID,20.7589,VALID,140,VALID,1.64435,
2004-01-06, 01:29:00,VALID,918.708,VALID,0,VALID,90.9452,VALID,0,VALID,20.7495,VALID,127,VALID,1.55941,
2004-01-06, 01:30:00,VALID,918.697,VALID,0,VALID,90.9897,VALID,0.0169808,VALID,20.7334,VALID,138,VALID,1.33012,
2004-01-06, 01:31:00,VALID,918.708,VALID,0,VALID,91.0354,VALID,0.0169808,VALID,20.743,VALID,149,VALID,1.03454,
2004-01-06, 01:32:00,VALID,918.706,VALID,0,VALID,91.1397,VALID,0.0169808,VALID,20.7403,VALID,133,VALID,1.67264,
2004-01-06, 01:33:00,VALID,918.699,VALID,0,VALID,91.2554,VALID,0,VALID,20.7438,VALID,116,VALID,1.62571,
2004-01-06, 01:34:01,VALID,918.706,VALID,0,VALID,91.3711,VALID,0.0339617,VALID,20.7269,VALID,149,VALID,1.48666,
2004-01-06, 01:35:00,VALID,918.707,VALID,0,VALID,91.5072,VALID,0.0169808,VALID,20.7272,VALID,133,VALID,1.16388,
2004-01-06, 01:36:00,VALID,918.682,VALID,0,VALID,91.6,VALID,0.0169808,VALID,20.7046,VALID,159,VALID,2.03507,
2004-01-06, 01:37:00,VALID,918.664,VALID,0,VALID,91.6687,VALID,0.0169808,VALID,20.7212,VALID,136,VALID,1.43045,
2004-01-06, 01:38:01,VALID,918.629,VALID,0,VALID,91.6687,VALID,0,VALID,20.7113,VALID,128,VALID,2.15253,
2004-01-06, 01:39:00,VALID,918.586,VALID,0,VALID,91.6445,VALID,0.0169808,VALID,20.7202,VALID,126,VALID,2.32906,
2004-01-06, 01:40:01,VALID,918.555,VALID,0,VALID,91.5148,VALID,0.0169808,VALID,20.7363,VALID,128,VALID,2.52891,
2004-01-06, 01:41:00,VALID,918.526,VALID,0,VALID,91.4055,VALID,0.0509425,VALID,20.7657,VALID,124,VALID,2.88243,
2004-01-06, 01:42:00,VALID,918.53,VALID,0,VALID,91.4691,VALID,0.0339617,VALID,20.7748,VALID,142,VALID,2.56696,
2004-01-06, 01:43:00,VALID,918.521,VALID,0,VALID,91.5365,VALID,0.0509425,VALID,20.7719,VALID,134,VALID,2.66229,
2004-01-06, 01:44:00,VALID,918.531,VALID,0,VALID,91.4271,VALID,0.0339617,VALID,20.7823,VALID,120,VALID,3.29924,
2004-01-06, 01:45:00,VALID,918.562,VALID,0,VALID,91.2898,VALID,0.0509425,VALID,20.8176,VALID,135,VALID,2.30913,
2004-01-06, 01:46:00,VALID,918.561,VALID,0,VALID,91.2135,VALID,0.0509425,VALID,20.8335,VALID,139,VALID,1.64472,
2004-01-06, 01:47:00,VALID,918.555,VALID,0,VALID,91.141,VALID,0.0169808,VALID,20.8332,VALID,140,VALID,2.52992,
2004-01-06, 01:48:01,VALID,918.559,VALID,0,VALID,91.1283,VALID,0.0339617,VALID,20.866,VALID,135,VALID,1.71056,
2004-01-06, 01:49:01,VALID,918.533,VALID,0,VALID,91.1079,VALID,0,VALID,20.8596,VALID,129,VALID,1.93843,
2004-01-06, 01:50:00,VALID,918.533,VALID,0,VALID,91.0965,VALID,0.0509425,VALID,20.8591,VALID,127,VALID,2.16673,
2004-01-06, 01:51:01,VALID,918.5,VALID,0,VALID,91.0927,VALID,0.0169808,VALID,20.8693,VALID,136,VALID,2.42809,
2004-01-06, 01:52:00,VALID,918.495,VALID,0,VALID,91.1219,VALID,0.0339617,VALID,20.8558,VALID,129,VALID,2.29102,
2004-01-06, 01:53:01,VALID,918.477,VALID,0,VALID,91.1537,VALID,0.0509425,VALID,20.8464,VALID,124,VALID,2.16345,
2004-01-06, 01:54:00,VALID,918.473,VALID,0,VALID,91.1728,VALID,0.0509425,VALID,20.8598,VALID,127,VALID,1.5545,
2004-01-06, 01:55:01,VALID,918.454,VALID,0,VALID,91.2402,VALID,0.0509425,VALID,20.8502,VALID,129,VALID,1.87627,
2004-01-06, 01:56:01,VALID,918.452,VALID,0,VALID,91.2364,VALID,0,VALID,20.827,VALID,145,VALID,1.65892,
2004-01-06, 01:57:01,VALID,918.457,VALID,0,VALID,91.3648,VALID,-0.0169808,VALID,20.8278,VALID,138,VALID,1.44703,
2004-01-06, 01:58:01,VALID,918.458,VALID,0,VALID,91.4335,VALID,0,VALID,20.8079,VALID,163,VALID,1.70436,
2004-01-06, 01:59:00,VALID,918.461,VALID,0,VALID,91.4703,VALID,0,VALID,20.8012,VALID,145,VALID,2.55977,
2004-01-06, 02:00:01,VALID,918.456,VALID,0,VALID,91.4474,VALID,0,VALID,20.8141,VALID,150,VALID,1.01672,
2004-01-06, 02:01:00,VALID,918.434,VALID,0,VALID,91.4513,VALID,0,VALID,20.8079,VALID,147,VALID,1.36886,
2004-01-06, 02:02:01,VALID,918.426,VALID,0,VALID,91.5275,VALID,0.0169808,VALID,20.8076,VALID,167,VALID,0.756138,
2004-01-06, 02:03:01,VALID,918.418,VALID,0,VALID,91.5873,VALID,0,VALID,20.7918,VALID,143,VALID,1.5189,
2004-01-06, 02:04:01,VALID,918.394,VALID,0,VALID,91.5708,VALID,-0.0169808,VALID,20.7891,VALID,148,VALID,1.95846,
2004-01-06, 02:05:00,VALID,918.384,VALID,0,VALID,91.4322,VALID,-0.0509425,VALID,20.7853,VALID,134,VALID,2.21559,
2004-01-06, 02:06:01,VALID,918.364,VALID,0,VALID,91.361,VALID,0,VALID,20.8114,VALID,146,VALID,1.91988,
2004-01-06, 02:07:00,VALID,918.343,VALID,0,VALID,91.2338,VALID,0,VALID,20.8104,VALID,131,VALID,2.06045,
2004-01-06, 02:08:01,VALID,918.33,VALID,0,VALID,91.2338,VALID,0,VALID,20.8405,VALID,127,VALID,1.79434,
2004-01-06, 02:09:01,VALID,918.326,VALID,0,VALID,90.9502,VALID,0,VALID,20.8365,VALID,122,VALID,2.50059,
2004-01-06, 02:10:01,VALID,918.313,VALID,0,VALID,90.9922,VALID,0,VALID,20.8569,VALID,121,VALID,2.1941,
2004-01-06, 02:11:01,VALID,918.289,VALID,0,VALID,91.0176,VALID,0,VALID,20.8628,VALID,121,VALID,2.06123,
2004-01-06, 02:12:01,VALID,918.295,VALID,0,VALID,91.1524,VALID,0,VALID,20.8402,VALID,136,VALID,1.84357,
2004-01-06, 02:13:01,VALID,918.288,VALID,0,VALID,91.2821,VALID,0.0169808,VALID,20.8405,VALID,121,VALID,1.49645,
2004-01-06, 02:14:01,VALID,918.31,VALID,0,VALID,91.3737,VALID,-0.0679233,VALID,20.8152,VALID,126,VALID,2.00742,
2004-01-06, 02:15:01,VALID,918.307,VALID,0,VALID,91.5377,VALID,0,VALID,20.7818,VALID,107,VALID,1.91481,
2004-01-06, 02:16:01,VALID,918.296,VALID,0,VALID,91.642,VALID,-0.0169808,VALID,20.7691,VALID,110,VALID,1.7207,
2004-01-06, 02:17:01,VALID,918.269,VALID,0,VALID,91.6496,VALID,0,VALID,20.7495,VALID,145,VALID,2.03868,
2004-01-06, 02:18:01,VALID,918.269,VALID,0,VALID,91.5136,VALID,0.0169808,VALID,20.7783,VALID,149,VALID,1.91406,
2004-01-06, 02:19:01,VALID,918.283,VALID,0,VALID,91.436,VALID,-0.0169808,VALID,20.8042,VALID,145,VALID,1.76758,
2004-01-06, 02:20:01,VALID,918.27,VALID,0,VALID,91.2974,VALID,0,VALID,20.8042,VALID,139,VALID,1.74099,
2004-01-06, 02:21:01,VALID,918.295,VALID,0,VALID,91.1397,VALID,0.0169808,VALID,20.8467,VALID,127,VALID,1.40179,
2004-01-06, 02:22:01,VALID,918.31,VALID,0,VALID,91.2122,VALID,-0.0169808,VALID,20.8529,VALID,145,VALID,1.4641,
2004-01-06, 02:23:01,VALID,918.306,VALID,0,VALID,91.2262,VALID,0,VALID,20.8491,VALID,132,VALID,2.19265,
2004-01-06, 02:24:01,VALID,918.304,VALID,0,VALID,91.2949,VALID,0,VALID,20.8626,VALID,127,VALID,1.86319,
2004-01-06, 02:25:01,VALID,918.292,VALID,0,VALID,91.3165,VALID,0,VALID,20.8394,VALID,144,VALID,2.1513,
2004-01-06, 02:26:01,VALID,918.275,VALID,0,VALID,91.2364,VALID,0,VALID,20.8558,VALID,138,VALID,1.67488,
2004-01-06, 02:27:01,VALID,918.269,VALID,0,VALID,91.3037,VALID,0,VALID,20.8658,VALID,117,VALID,1.63597,
2004-01-06, 02:28:01,VALID,918.256,VALID,0,VALID,91.3343,VALID,0,VALID,20.8359,VALID,125,VALID,1.81339,
2004-01-06, 02:29:01,VALID,918.237,VALID,0,VALID,91.3508,VALID,-0.0169808,VALID,20.833,VALID,120,VALID,1.4288,
2004-01-06, 02:30:01,VALID,918.214,VALID,0,VALID,91.2325,VALID,0,VALID,20.8469,VALID,116,VALID,2.1311,
2004-01-06, 02:31:01,VALID,918.216,VALID,0,VALID,91.1918,VALID,0,VALID,20.8459,VALID,117,VALID,1.27248,
2004-01-06, 02:32:01,VALID,918.202,VALID,0,VALID,91.0329,VALID,0,VALID,20.8658,VALID,133,VALID,2.07849,
2004-01-06, 02:33:01,VALID,918.206,VALID,0,VALID,91.0151,VALID,0.0169808,VALID,20.8849,VALID,111,VALID,1.98183,
2004-01-06, 02:34:01,VALID,918.208,VALID,0,VALID,91.1283,VALID,0,VALID,20.8752,VALID,92,VALID,1.11435,
2004-01-06, 02:35:01,VALID,918.195,VALID,0,VALID,91.2046,VALID,0,VALID,20.8593,VALID,95,VALID,1.22275,
2004-01-06, 02:36:01,VALID,918.182,VALID,0,VALID,91.3025,VALID,0,VALID,20.8558,VALID,106,VALID,1.0173,
2004-01-06, 02:37:01,VALID,918.18,VALID,0,VALID,91.3826,VALID,-0.0169808,VALID,20.8399,VALID,136,VALID,1.25819,
2004-01-06, 02:38:01,VALID,918.157,VALID,0,VALID,91.3012,VALID,0,VALID,20.8335,VALID,137,VALID,1.89946,
2004-01-06, 02:39:01,VALID,918.152,VALID,0,VALID,91.0621,VALID,0,VALID,20.8432,VALID,126,VALID,1.33754,
2004-01-06, 02:40:00,VALID,918.144,VALID,0,VALID,90.776,VALID,0,VALID,20.8749,VALID,145,VALID,1.56449,
2004-01-06, 02:41:00,VALID,918.151,VALID,0,VALID,90.7277,VALID,0,VALID,20.914,VALID,152,VALID,0.906929,
2004-01-06, 02:42:00,VALID,918.15,VALID,0,VALID,90.8498,VALID,0,VALID,20.9137,VALID,131,VALID,0.99929,
2004-01-06, 02:43:00,VALID,918.14,VALID,0,VALID,90.9795,VALID,0,VALID,20.911,VALID,139,VALID,1.36701,
2004-01-06, 02:44:00,VALID,918.141,VALID,0,VALID,91.0075,VALID,0.0169808,VALID,20.8846,VALID,152,VALID,1.22212,
2004-01-06, 02:45:00,VALID,918.123,VALID,0,VALID,90.8956,VALID,0.0339617,VALID,20.8849,VALID,143,VALID,2.14658,
2004-01-06, 02:46:00,VALID,918.122,VALID,0,VALID,90.6285,VALID,0,VALID,20.8941,VALID,116,VALID,1.60575,
2004-01-06, 02:47:00,VALID,918.13,VALID,0,VALID,90.8142,VALID,0.0169808,VALID,20.9142,VALID,99,VALID,1.58339,
2004-01-06, 02:48:00,VALID,918.15,VALID,0,VALID,90.7442,VALID,0,VALID,20.9142,VALID,132,VALID,1.03185,
2004-01-06, 02:49:00,VALID,918.143,VALID,0,VALID,90.8549,VALID,0,VALID,20.904,VALID,135,VALID,1.28142,
2004-01-06, 02:50:00,VALID,918.129,VALID,0,VALID,90.8841,VALID,0,VALID,20.8911,VALID,131,VALID,1.46183,
2004-01-06, 02:51:00,VALID,918.122,VALID,0,VALID,90.8256,VALID,0.0169808,VALID,20.8981,VALID,149,VALID,1.61966,
2004-01-06, 02:52:00,VALID,918.106,VALID,0,VALID,90.8752,VALID,0,VALID,20.8908,VALID,127,VALID,1.3254,
2004-01-06, 02:53:00,VALID,918.093,VALID,0,VALID,91.0176,VALID,0,VALID,20.8911,VALID,125,VALID,1.40647,
2004-01-06, 02:54:00,VALID,918.088,VALID,0,VALID,91.1168,VALID,0.0169808,VALID,20.8558,VALID,127,VALID,1.82887,
2004-01-06, 02:55:00,VALID,918.074,VALID,0,VALID,91.2058,VALID,0.0169808,VALID,20.8101,VALID,131,VALID,1.61265,
2004-01-06, 02:56:00,VALID,918.08,VALID,0,VALID,91.3025,VALID,0,VALID,20.8007,VALID,142,VALID,1.94103,
2004-01-06, 02:57:00,VALID,918.06,VALID,0,VALID,91.2109,VALID,-0.0339617,VALID,20.799,VALID,139,VALID,1.35701,
2004-01-06, 02:58:00,VALID,918.065,VALID,0,VALID,91.2427,VALID,-0.0509425,VALID,20.8022,VALID,132,VALID,1.41515,
2004-01-06, 02:59:00,VALID,918.052,VALID,0,VALID,91.4106,VALID,-0.0679233,VALID,20.7896,VALID,145,VALID,1.21526,
2004-01-06, 03:00:00,VALID,918.043,VALID,0,VALID,91.5593,VALID,-0.0679233,VALID,20.7376,VALID,122,VALID,1.11518,
2004-01-06, 03:01:00,VALID,918.045,VALID,0,VALID,91.656,VALID,-0.0339617,VALID,20.7225,VALID,129,VALID,1.17987,
2004-01-06, 03:02:00,VALID,918.03,VALID,0,VALID,91.6801,VALID,-0.0679233,VALID,20.6962,VALID,129,VALID,1.47511,
2004-01-06, 03:03:00,VALID,918.031,VALID,0,VALID,91.7119,VALID,-0.0169808,VALID,20.6897,VALID,125,VALID,1.16964,
2004-01-06, 03:04:00,VALID,918.021,VALID,0,VALID,91.7768,VALID,-0.0849042,VALID,20.6808,VALID,103,VALID,1.40317,
2004-01-06, 03:05:00,VALID,918.015,VALID,0,VALID,91.9497,VALID,-0.0509425,VALID,20.644,VALID,118,VALID,1.20112,
2004-01-06, 03:06:00,VALID,918.011,VALID,0,VALID,92.0845,VALID,-0.0339617,VALID,20.6084,VALID,122,VALID,1.09933,
2004-01-06, 03:07:00,VALID,917.991,VALID,0,VALID,92.1087,VALID,0,VALID,20.6022,VALID,105,VALID,0.84375,
2004-01-06, 03:08:00,VALID,917.983,VALID,0,VALID,92.1939,VALID,0,VALID,20.5829,VALID,123,VALID,0.920922,
2004-01-06, 03:09:00,VALID,917.972,VALID,0,VALID,92.3109,VALID,-0.0169808,VALID,20.5603,VALID,116,VALID,1.02437,
2004-01-06, 03:10:00,VALID,917.949,VALID,0,VALID,92.4228,VALID,-0.0679233,VALID,20.5471,VALID,129,VALID,1.27028,
2004-01-06, 03:11:00,VALID,917.934,VALID,0,VALID,92.3694,VALID,-0.0679233,VALID,20.5503,VALID,122,VALID,1.07724,
2004-01-06, 03:12:00,VALID,917.919,VALID,0,VALID,92.3884,VALID,0.0339617,VALID,20.5522,VALID,136,VALID,0.855015,
2004-01-06, 03:13:00,VALID,917.926,VALID,0,VALID,92.3961,VALID,0.0169808,VALID,20.5525,VALID,104,VALID,0.856286,
2004-01-06, 03:14:00,VALID,917.928,VALID,0,VALID,92.644,VALID,0.0509425,VALID,20.5267,VALID,95,VALID,1.16349,
2004-01-06, 03:15:00,VALID,917.925,VALID,0,VALID,92.8119,VALID,0.0849042,VALID,20.4809,VALID,98,VALID,1.10302,
2004-01-06, 03:16:00,VALID,917.911,VALID,0,VALID,92.7928,VALID,0.0169808,VALID,20.4782,VALID,114,VALID,0.929142,
2004-01-06, 03:17:00,VALID,917.9,VALID,0,VALID,92.8131,VALID,0.0169808,VALID,20.479,VALID,107,VALID,1.07868,
2004-01-06, 03:18:00,VALID,917.884,VALID,0,VALID,92.8958,VALID,0.0339617,VALID,20.4723,VALID,107,VALID,1.11518,
2004-01-06, 03:19:00,VALID,917.873,VALID,0,VALID,92.9149,VALID,0,VALID,20.4661,VALID,106,VALID,1.10298,
2004-01-06, 03:20:00,VALID,917.863,VALID,0,VALID,92.789,VALID,0.0509425,VALID,20.4427,VALID,138,VALID,1.46058,
2004-01-06, 03:21:00,VALID,917.835,VALID,0,VALID,92.4711,VALID,0.0169808,VALID,20.4755,VALID,141,VALID,1.5883,
2004-01-06, 03:22:00,VALID,917.849,VALID,0,VALID,92.1748,VALID,0.0509425,VALID,20.5428,VALID,118,VALID,1.47238,
2004-01-06, 03:23:00,VALID,917.836,VALID,0,VALID,92.0883,VALID,0.0339617,VALID,20.5495,VALID,127,VALID,1.49964,
2004-01-06, 03:24:00,VALID,917.833,VALID,0,VALID,92.1189,VALID,0.0679233,VALID,20.5463,VALID,141,VALID,1.59947,
2004-01-06, 03:25:00,VALID,917.829,VALID,0,VALID,92.0413,VALID,0.0509425,VALID,20.5791,VALID,135,VALID,1.47947,
2004-01-06, 03:26:00,VALID,917.831,VALID,0,VALID,92.0133,VALID,0.0169808,VALID,20.5689,VALID,121,VALID,1.48476,
2004-01-06, 03:27:00,VALID,917.812,VALID,0,VALID,92.0832,VALID,-0.0679233,VALID,20.571,VALID,133,VALID,1.9401,
2004-01-06, 03:28:00,VALID,917.82,VALID,0,VALID,92.0133,VALID,-0.0679233,VALID,20.5904,VALID,130,VALID,1.54015,
2004-01-06, 03:29:00,VALID,917.81,VALID,0,VALID,91.9764,VALID,-0.0509425,VALID,20.5829,VALID,116,VALID,1.32777,
2004-01-06, 03:30:00,VALID,917.805,VALID,0,VALID,92.0476,VALID,-0.0679233,VALID,20.5866,VALID,134,VALID,1.3623,
2004-01-06, 03:31:00,VALID,917.81,VALID,0,VALID,91.9968,VALID,-0.0679233,VALID,20.6,VALID,130,VALID,1.71649,
2004-01-06, 03:32:00,VALID,917.819,VALID,0,VALID,91.8277,VALID,-0.0849042,VALID,20.6092,VALID,124,VALID,1.36348,
2004-01-06, 03:33:00,VALID,917.82,VALID,0,VALID,91.7844,VALID,-0.101885,VALID,20.6259,VALID,127,VALID,1.68887,
2004-01-06, 03:34:00,VALID,917.82,VALID,0,VALID,91.6573,VALID,-0.101885,VALID,20.6453,VALID,115,VALID,1.57449,
2004-01-06, 03:35:00,VALID,917.806,VALID,0,VALID,91.7514,VALID,-0.101885,VALID,20.6316,VALID,126,VALID,1.49461,
2004-01-06, 03:36:00,VALID,917.791,VALID,0,VALID,91.8009,VALID,-0.0509425,VALID,20.6318,VALID,136,VALID,1.54924,
2004-01-06, 03:37:00,VALID,917.787,VALID,0,VALID,91.7336,VALID,-0.0509425,VALID,20.6321,VALID,136,VALID,1.3899,